Location: Le Domaine
(47.0333°N, 76.5361°W)
Time: 10:19:45
(UTC-05:00)

S-56A Canister/Altair - Pass Details

Date: 22 November 2019
Orbit: 633 x 2499 km, 38.9° (Epoch: 06 December)

Event Time Altitude Azimuth Distance (km) Brightness Sun altitude
Rises 16:37:49 0° 240° (WSW) 5,590 15.4 -2.8°
Reaches altitude 10° 16:42:05 10° 235° (SW) 4,322 13.3 -3.4°
Maximum altitude 16:52:15 44° 170° (S) 1,907 9.7 -5.0°
Drops below altitude 10° 16:59:09 10° 100° (E) 2,955 10.0 -6.1°
Enters shadow 17:00:50 - 95° (E) 3,475 10.3 -6.3°
Sets 17:01:33 0° 94° (E) 3,706 - -6.4°
